Index of /20260429/WXO-DD/model_gdps/15km/12/078
Name Last modified Size Description
Parent Directory -
20260429T12Z_MSC_GDPS_AbsoluteVorticity_IsbL-0200_LatLon0.15_PT078H.grib2 2026-04-29 16:19 1.5M
20260429T12Z_MSC_GDPS_AbsoluteVorticity_IsbL-0250_LatLon0.15_PT078H.grib2 2026-04-29 16:19 1.3M
20260429T12Z_MSC_GDPS_AbsoluteVorticity_IsbL-0500_LatLon0.15_PT078H.grib2 2026-04-29 16:19 1.4M
20260429T12Z_MSC_GDPS_AbsoluteVorticity_IsbL-0700_LatLon0.15_PT078H.grib2 2026-04-29 16:19 1.3M
20260429T12Z_MSC_GDPS_AbsoluteVorticity_IsbL-0850_LatLon0.15_PT078H.grib2 2026-04-29 16:19 1.6M
20260429T12Z_MSC_GDPS_AirTemp-Max_AGL-2m_LatLon0.15_PT078H.grib2 2026-04-29 16:19 745K
20260429T12Z_MSC_GDPS_AirTemp-Min_AGL-2m_LatLon0.15_PT078H.grib2 2026-04-29 16:19 790K
20260429T12Z_MSC_GDPS_AirTemp_AGL-120m_LatLon0.15_PT078H.grib2 2026-04-29 16:19 792K
20260429T12Z_MSC_GDPS_AirTemp_AGL-2m_LatLon0.15_PT078H.grib2 2026-04-29 16:19 1.0M
20260429T12Z_MSC_GDPS_AirTemp_AGL-40m_LatLon0.15_PT078H.grib2 2026-04-29 16:19 813K
20260429T12Z_MSC_GDPS_AirTemp_AGL-80m_LatLon0.15_PT078H.grib2 2026-04-29 16:19 801K
20260429T12Z_MSC_GDPS_AirTemp_IsbL-0001_LatLon0.15_PT078H.grib2 2026-04-29 16:19 714K
20260429T12Z_MSC_GDPS_AirTemp_IsbL-0005_LatLon0.15_PT078H.grib2 2026-04-29 16:19 682K
20260429T12Z_MSC_GDPS_AirTemp_IsbL-0010_LatLon0.15_PT078H.grib2 2026-04-29 16:19 692K
20260429T12Z_MSC_GDPS_AirTemp_IsbL-0020_LatLon0.15_PT078H.grib2 2026-04-29 16:19 783K
20260429T12Z_MSC_GDPS_AirTemp_IsbL-0030_LatLon0.15_PT078H.grib2 2026-04-29 16:19 750K
20260429T12Z_MSC_GDPS_AirTemp_IsbL-0050_LatLon0.15_PT078H.grib2 2026-04-29 16:19 807K
20260429T12Z_MSC_GDPS_AirTemp_IsbL-0100_LatLon0.15_PT078H.grib2 2026-04-29 16:19 1.0M
20260429T12Z_MSC_GDPS_AirTemp_IsbL-0150_LatLon0.15_PT078H.grib2 2026-04-29 16:19 1.0M
20260429T12Z_MSC_GDPS_AirTemp_IsbL-0175_LatLon0.15_PT078H.grib2 2026-04-29 16:19 962K
20260429T12Z_MSC_GDPS_AirTemp_IsbL-0200_LatLon0.15_PT078H.grib2 2026-04-29 16:19 1.0M
20260429T12Z_MSC_GDPS_AirTemp_IsbL-0225_LatLon0.15_PT078H.grib2 2026-04-29 16:19 1.0M
20260429T12Z_MSC_GDPS_AirTemp_IsbL-0250_LatLon0.15_PT078H.grib2 2026-04-29 16:19 1.0M
20260429T12Z_MSC_GDPS_AirTemp_IsbL-0275_LatLon0.15_PT078H.grib2 2026-04-29 16:19 1.0M
20260429T12Z_MSC_GDPS_AirTemp_IsbL-0300_LatLon0.15_PT078H.grib2 2026-04-29 16:19 1.0M
20260429T12Z_MSC_GDPS_AirTemp_IsbL-0350_LatLon0.15_PT078H.grib2 2026-04-29 16:19 930K
20260429T12Z_MSC_GDPS_AirTemp_IsbL-0400_LatLon0.15_PT078H.grib2 2026-04-29 16:19 944K
20260429T12Z_MSC_GDPS_AirTemp_IsbL-0450_LatLon0.15_PT078H.grib2 2026-04-29 16:19 965K
20260429T12Z_MSC_GDPS_AirTemp_IsbL-0500_LatLon0.15_PT078H.grib2 2026-04-29 16:19 1.0M
20260429T12Z_MSC_GDPS_AirTemp_IsbL-0550_LatLon0.15_PT078H.grib2 2026-04-29 16:19 806K
20260429T12Z_MSC_GDPS_AirTemp_IsbL-0600_LatLon0.15_PT078H.grib2 2026-04-29 16:19 897K
20260429T12Z_MSC_GDPS_AirTemp_IsbL-0650_LatLon0.15_PT078H.grib2 2026-04-29 16:19 925K
20260429T12Z_MSC_GDPS_AirTemp_IsbL-0700_LatLon0.15_PT078H.grib2 2026-04-29 16:19 960K
20260429T12Z_MSC_GDPS_AirTemp_IsbL-0750_LatLon0.15_PT078H.grib2 2026-04-29 16:19 1.0M
20260429T12Z_MSC_GDPS_AirTemp_IsbL-0800_LatLon0.15_PT078H.grib2 2026-04-29 16:19 1.1M
20260429T12Z_MSC_GDPS_AirTemp_IsbL-0850_LatLon0.15_PT078H.grib2 2026-04-29 16:19 1.1M
20260429T12Z_MSC_GDPS_AirTemp_IsbL-0875_LatLon0.15_PT078H.grib2 2026-04-29 16:19 1.2M
20260429T12Z_MSC_GDPS_AirTemp_IsbL-0900_LatLon0.15_PT078H.grib2 2026-04-29 16:19 1.1M
20260429T12Z_MSC_GDPS_AirTemp_IsbL-0925_LatLon0.15_PT078H.grib2 2026-04-29 16:19 1.1M
20260429T12Z_MSC_GDPS_AirTemp_IsbL-0950_LatLon0.15_PT078H.grib2 2026-04-29 16:19 1.1M
20260429T12Z_MSC_GDPS_AirTemp_IsbL-0970_LatLon0.15_PT078H.grib2 2026-04-29 16:19 1.2M
20260429T12Z_MSC_GDPS_AirTemp_IsbL-0985_LatLon0.15_PT078H.grib2 2026-04-29 16:19 1.1M
20260429T12Z_MSC_GDPS_AirTemp_IsbL-1000_LatLon0.15_PT078H.grib2 2026-04-29 16:19 1.1M
20260429T12Z_MSC_GDPS_AirTemp_IsbL-1015_LatLon0.15_PT078H.grib2 2026-04-29 16:19 1.1M
20260429T12Z_MSC_GDPS_Albedo_Sfc_LatLon0.15_PT078H.grib2 2026-04-29 16:19 245K
20260429T12Z_MSC_GDPS_CAPE_Sfc_LatLon0.15_PT078H.grib2 2026-04-29 16:19 3.7M
20260429T12Z_MSC_GDPS_CIN_Sfc_LatLon0.15_PT078H.grib2 2026-04-29 16:19 2.9M
20260429T12Z_MSC_GDPS_CloudWater_EAtm_LatLon0.15_PT078H.grib2 2026-04-29 16:19 536K
20260429T12Z_MSC_GDPS_ConvectivePrecip-Accum_Sfc_LatLon0.15_PT078H.grib2 2026-04-29 16:19 3.2M
20260429T12Z_MSC_GDPS_DewPointDepression_AGL-2m_LatLon0.15_PT078H.grib2 2026-04-29 16:19 767K
20260429T12Z_MSC_GDPS_DewPointDepression_IsbL-0010_LatLon0.15_PT078H.grib2 2026-04-29 16:19 60K
20260429T12Z_MSC_GDPS_DewPointDepression_IsbL-0020_LatLon0.15_PT078H.grib2 2026-04-29 16:19 65K
20260429T12Z_MSC_GDPS_DewPointDepression_IsbL-0030_LatLon0.15_PT078H.grib2 2026-04-29 16:19 82K
20260429T12Z_MSC_GDPS_DewPointDepression_IsbL-0050_LatLon0.15_PT078H.grib2 2026-04-29 16:19 375K
20260429T12Z_MSC_GDPS_DewPointDepression_IsbL-0100_LatLon0.15_PT078H.grib2 2026-04-29 16:19 413K
20260429T12Z_MSC_GDPS_DewPointDepression_IsbL-0150_LatLon0.15_PT078H.grib2 2026-04-29 16:19 468K
20260429T12Z_MSC_GDPS_DewPointDepression_IsbL-0175_LatLon0.15_PT078H.grib2 2026-04-29 16:19 576K
20260429T12Z_MSC_GDPS_DewPointDepression_IsbL-0200_LatLon0.15_PT078H.grib2 2026-04-29 16:19 688K
20260429T12Z_MSC_GDPS_DewPointDepression_IsbL-0225_LatLon0.15_PT078H.grib2 2026-04-29 16:19 782K
20260429T12Z_MSC_GDPS_DewPointDepression_IsbL-0250_LatLon0.15_PT078H.grib2 2026-04-29 16:19 859K
20260429T12Z_MSC_GDPS_DewPointDepression_IsbL-0275_LatLon0.15_PT078H.grib2 2026-04-29 16:19 876K
20260429T12Z_MSC_GDPS_DewPointDepression_IsbL-0300_LatLon0.15_PT078H.grib2 2026-04-29 16:19 916K
20260429T12Z_MSC_GDPS_DewPointDepression_IsbL-0350_LatLon0.15_PT078H.grib2 2026-04-29 16:19 945K
20260429T12Z_MSC_GDPS_DewPointDepression_IsbL-0400_LatLon0.15_PT078H.grib2 2026-04-29 16:19 1.0M
20260429T12Z_MSC_GDPS_DewPointDepression_IsbL-0450_LatLon0.15_PT078H.grib2 2026-04-29 16:19 1.0M
20260429T12Z_MSC_GDPS_DewPointDepression_IsbL-0500_LatLon0.15_PT078H.grib2 2026-04-29 16:19 1.0M
20260429T12Z_MSC_GDPS_DewPointDepression_IsbL-0550_LatLon0.15_PT078H.grib2 2026-04-29 16:19 1.0M
20260429T12Z_MSC_GDPS_DewPointDepression_IsbL-0600_LatLon0.15_PT078H.grib2 2026-04-29 16:19 1.0M
20260429T12Z_MSC_GDPS_DewPointDepression_IsbL-0650_LatLon0.15_PT078H.grib2 2026-04-29 16:19 1.1M
20260429T12Z_MSC_GDPS_DewPointDepression_IsbL-0700_LatLon0.15_PT078H.grib2 2026-04-29 16:19 1.1M
20260429T12Z_MSC_GDPS_DewPointDepression_IsbL-0750_LatLon0.15_PT078H.grib2 2026-04-29 16:19 1.1M
20260429T12Z_MSC_GDPS_DewPointDepression_IsbL-0800_LatLon0.15_PT078H.grib2 2026-04-29 16:19 1.2M
20260429T12Z_MSC_GDPS_DewPointDepression_IsbL-0850_LatLon0.15_PT078H.grib2 2026-04-29 16:19 1.2M
20260429T12Z_MSC_GDPS_DewPointDepression_IsbL-0875_LatLon0.15_PT078H.grib2 2026-04-29 16:19 1.1M
20260429T12Z_MSC_GDPS_DewPointDepression_IsbL-0900_LatLon0.15_PT078H.grib2 2026-04-29 16:19 1.1M
20260429T12Z_MSC_GDPS_DewPointDepression_IsbL-0925_LatLon0.15_PT078H.grib2 2026-04-29 16:19 1.0M
20260429T12Z_MSC_GDPS_DewPointDepression_IsbL-0950_LatLon0.15_PT078H.grib2 2026-04-29 16:19 1.0M
20260429T12Z_MSC_GDPS_DewPointDepression_IsbL-0970_LatLon0.15_PT078H.grib2 2026-04-29 16:19 1.0M
20260429T12Z_MSC_GDPS_DewPointDepression_IsbL-0985_LatLon0.15_PT078H.grib2 2026-04-29 16:19 1.0M
20260429T12Z_MSC_GDPS_DewPointDepression_IsbL-1000_LatLon0.15_PT078H.grib2 2026-04-29 16:19 1.0M
20260429T12Z_MSC_GDPS_DewPointDepression_IsbL-1015_LatLon0.15_PT078H.grib2 2026-04-29 16:19 922K
20260429T12Z_MSC_GDPS_DewPoint_AGL-2m_LatLon0.15_PT078H.grib2 2026-04-29 16:19 612K
20260429T12Z_MSC_GDPS_DownwardLongwaveRadiationFlux-Accum_Sfc_LatLon0.15_PT078H.grib2 2026-04-29 16:19 683K
20260429T12Z_MSC_GDPS_DownwardShortwaveRadiationFlux-Accum_NTAtm_LatLon0.15_PT078H.grib2 2026-04-29 16:19 238K
20260429T12Z_MSC_GDPS_DownwardShortwaveRadiationFlux-Accum_Sfc_LatLon0.15_PT078H.grib2 2026-04-29 16:19 894K
20260429T12Z_MSC_GDPS_FreezingRain-Accum12h_Sfc_LatLon0.15_PT078H.grib2 2026-04-29 16:19 118K
20260429T12Z_MSC_GDPS_FreezingRain-Accum1h_Sfc_LatLon0.15_PT078H.grib2 2026-04-29 16:19 41K
20260429T12Z_MSC_GDPS_FreezingRain-Accum24h_Sfc_LatLon0.15_PT078H.grib2 2026-04-29 16:19 151K
20260429T12Z_MSC_GDPS_FreezingRain-Accum3h_Sfc_LatLon0.15_PT078H.grib2 2026-04-29 16:19 60K
20260429T12Z_MSC_GDPS_FreezingRain-Accum6h_Sfc_LatLon0.15_PT078H.grib2 2026-04-29 16:19 96K
20260429T12Z_MSC_GDPS_FreezingRain-Accum_Sfc_LatLon0.15_PT078H.grib2 2026-04-29 16:19 335K
20260429T12Z_MSC_GDPS_GeopotentialHeight_IsbL-0001_LatLon0.15_PT078H.grib2 2026-04-29 16:19 427K
20260429T12Z_MSC_GDPS_GeopotentialHeight_IsbL-0005_LatLon0.15_PT078H.grib2 2026-04-29 16:19 496K
20260429T12Z_MSC_GDPS_GeopotentialHeight_IsbL-0010_LatLon0.15_PT078H.grib2 2026-04-29 16:19 487K
20260429T12Z_MSC_GDPS_GeopotentialHeight_IsbL-0020_LatLon0.15_PT078H.grib2 2026-04-29 16:19 414K
20260429T12Z_MSC_GDPS_GeopotentialHeight_IsbL-0030_LatLon0.15_PT078H.grib2 2026-04-29 16:19 569K
20260429T12Z_MSC_GDPS_GeopotentialHeight_IsbL-0050_LatLon0.15_PT078H.grib2 2026-04-29 16:19 568K
20260429T12Z_MSC_GDPS_GeopotentialHeight_IsbL-0100_LatLon0.15_PT078H.grib2 2026-04-29 16:19 612K
20260429T12Z_MSC_GDPS_GeopotentialHeight_IsbL-0150_LatLon0.15_PT078H.grib2 2026-04-29 16:19 632K
20260429T12Z_MSC_GDPS_GeopotentialHeight_IsbL-0175_LatLon0.15_PT078H.grib2 2026-04-29 16:19 636K
20260429T12Z_MSC_GDPS_GeopotentialHeight_IsbL-0200_LatLon0.15_PT078H.grib2 2026-04-29 16:19 640K
20260429T12Z_MSC_GDPS_GeopotentialHeight_IsbL-0225_LatLon0.15_PT078H.grib2 2026-04-29 16:19 642K
20260429T12Z_MSC_GDPS_GeopotentialHeight_IsbL-0250_LatLon0.15_PT078H.grib2 2026-04-29 16:19 645K
20260429T12Z_MSC_GDPS_GeopotentialHeight_IsbL-0275_LatLon0.15_PT078H.grib2 2026-04-29 16:19 641K
20260429T12Z_MSC_GDPS_GeopotentialHeight_IsbL-0300_LatLon0.15_PT078H.grib2 2026-04-29 16:19 640K
20260429T12Z_MSC_GDPS_GeopotentialHeight_IsbL-0350_LatLon0.15_PT078H.grib2 2026-04-29 16:19 628K
20260429T12Z_MSC_GDPS_GeopotentialHeight_IsbL-0400_LatLon0.15_PT078H.grib2 2026-04-29 16:19 621K
20260429T12Z_MSC_GDPS_GeopotentialHeight_IsbL-0450_LatLon0.15_PT078H.grib2 2026-04-29 16:19 613K
20260429T12Z_MSC_GDPS_GeopotentialHeight_IsbL-0500_LatLon0.15_PT078H.grib2 2026-04-29 16:19 599K
20260429T12Z_MSC_GDPS_GeopotentialHeight_IsbL-0550_LatLon0.15_PT078H.grib2 2026-04-29 16:19 526K
20260429T12Z_MSC_GDPS_GeopotentialHeight_IsbL-0600_LatLon0.15_PT078H.grib2 2026-04-29 16:19 524K
20260429T12Z_MSC_GDPS_GeopotentialHeight_IsbL-0650_LatLon0.15_PT078H.grib2 2026-04-29 16:19 691K
20260429T12Z_MSC_GDPS_GeopotentialHeight_IsbL-0700_LatLon0.15_PT078H.grib2 2026-04-29 16:19 687K
20260429T12Z_MSC_GDPS_GeopotentialHeight_IsbL-0750_LatLon0.15_PT078H.grib2 2026-04-29 16:19 694K
20260429T12Z_MSC_GDPS_GeopotentialHeight_IsbL-0800_LatLon0.15_PT078H.grib2 2026-04-29 16:19 709K
20260429T12Z_MSC_GDPS_GeopotentialHeight_IsbL-0850_LatLon0.15_PT078H.grib2 2026-04-29 16:19 719K
20260429T12Z_MSC_GDPS_GeopotentialHeight_IsbL-0875_LatLon0.15_PT078H.grib2 2026-04-29 16:19 720K
20260429T12Z_MSC_GDPS_GeopotentialHeight_IsbL-0900_LatLon0.15_PT078H.grib2 2026-04-29 16:19 729K
20260429T12Z_MSC_GDPS_GeopotentialHeight_IsbL-0925_LatLon0.15_PT078H.grib2 2026-04-29 16:19 737K
20260429T12Z_MSC_GDPS_GeopotentialHeight_IsbL-0950_LatLon0.15_PT078H.grib2 2026-04-29 16:19 742K
20260429T12Z_MSC_GDPS_GeopotentialHeight_IsbL-0970_LatLon0.15_PT078H.grib2 2026-04-29 16:19 755K
20260429T12Z_MSC_GDPS_GeopotentialHeight_IsbL-0985_LatLon0.15_PT078H.grib2 2026-04-29 16:19 771K
20260429T12Z_MSC_GDPS_GeopotentialHeight_IsbL-1000_LatLon0.15_PT078H.grib2 2026-04-29 16:19 792K
20260429T12Z_MSC_GDPS_GeopotentialHeight_IsbL-1015_LatLon0.15_PT078H.grib2 2026-04-29 16:19 814K
20260429T12Z_MSC_GDPS_Humidex_Sfc_LatLon0.15_PT078H.grib2 2026-04-29 16:19 5.3M
20260429T12Z_MSC_GDPS_IcePellets-Accum12h_Sfc_LatLon0.15_PT078H.grib2 2026-04-29 16:19 9.3K
20260429T12Z_MSC_GDPS_IcePellets-Accum1h_Sfc_LatLon0.15_PT078H.grib2 2026-04-29 16:19 6.3K
20260429T12Z_MSC_GDPS_IcePellets-Accum24h_Sfc_LatLon0.15_PT078H.grib2 2026-04-29 16:19 16K
20260429T12Z_MSC_GDPS_IcePellets-Accum3h_Sfc_LatLon0.15_PT078H.grib2 2026-04-29 16:19 9.0K
20260429T12Z_MSC_GDPS_IcePellets-Accum6h_Sfc_LatLon0.15_PT078H.grib2 2026-04-29 16:19 13K
20260429T12Z_MSC_GDPS_IcePellets-Accum_Sfc_LatLon0.15_PT078H.grib2 2026-04-29 16:19 53K
20260429T12Z_MSC_GDPS_KIndex_Sfc_LatLon0.15_PT078H.grib2 2026-04-29 16:19 6.5M
20260429T12Z_MSC_GDPS_LatentHeatNetFlux_Sfc_LatLon0.15_PT078H.grib2 2026-04-29 16:19 522K
20260429T12Z_MSC_GDPS_LiftedIndex-MU-VT_IsbL-0500_LatLon0.15_PT078H.grib2 2026-04-29 16:19 5.4M
20260429T12Z_MSC_GDPS_NetLongwaveRadiationFlux-Accum_Sfc_LatLon0.15_PT078H.grib2 2026-04-29 16:19 909K
20260429T12Z_MSC_GDPS_NetShortwaveRadiationFlux-Accum_Sfc_LatLon0.15_PT078H.grib2 2026-04-29 16:19 1.1M
20260429T12Z_MSC_GDPS_O3MixingRatio_Sfc_LatLon0.15_PT078H.grib2 2026-04-29 16:50 1.9M
20260429T12Z_MSC_GDPS_O3_EAtm_LatLon0.15_PT078H.grib2 2026-04-29 16:50 2.5M
20260429T12Z_MSC_GDPS_PlanetaryBoundaryLayerHeight_Sfc_LatLon0.15_PT078H.grib2 2026-04-29 16:19 2.4M
20260429T12Z_MSC_GDPS_Precip-Accum12h_Sfc_LatLon0.15_PT078H.grib2 2026-04-29 16:19 4.0M
20260429T12Z_MSC_GDPS_Precip-Accum1h_Sfc_LatLon0.15_PT078H.grib2 2026-04-29 16:19 3.2M
20260429T12Z_MSC_GDPS_Precip-Accum24h_Sfc_LatLon0.15_PT078H.grib2 2026-04-29 16:19 4.5M
20260429T12Z_MSC_GDPS_Precip-Accum3h_Sfc_LatLon0.15_PT078H.grib2 2026-04-29 16:19 3.5M
20260429T12Z_MSC_GDPS_Precip-Accum6h_Sfc_LatLon0.15_PT078H.grib2 2026-04-29 16:19 3.6M
20260429T12Z_MSC_GDPS_Precip-Accum_Sfc_LatLon0.15_PT078H.grib2 2026-04-29 16:19 5.2M
20260429T12Z_MSC_GDPS_PrecipRate_Sfc_LatLon0.15_PT078H.grib2 2026-04-29 16:19 2.9M
20260429T12Z_MSC_GDPS_PrecipType-Instant_Sfc_LatLon0.15_PT078H.grib2 2026-04-29 16:19 1.6M
20260429T12Z_MSC_GDPS_Pressure_MSL_LatLon0.15_PT078H.grib2 2026-04-29 16:19 828K
20260429T12Z_MSC_GDPS_Pressure_PVU-1.5_LatLon0.15_PT078H.grib2 2026-04-29 16:19 5.8M
20260429T12Z_MSC_GDPS_Pressure_PVU-1_LatLon0.15_PT078H.grib2 2026-04-29 16:19 6.0M
20260429T12Z_MSC_GDPS_Pressure_PVU-2_LatLon0.15_PT078H.grib2 2026-04-29 16:19 5.6M
20260429T12Z_MSC_GDPS_Pressure_Sfc_LatLon0.15_PT078H.grib2 2026-04-29 16:19 1.1M
20260429T12Z_MSC_GDPS_RadiativeTemp_Sfc_LatLon0.15_PT078H.grib2 2026-04-29 16:19 490K
20260429T12Z_MSC_GDPS_Rain-Accum12h_Sfc_LatLon0.15_PT078H.grib2 2026-04-29 16:19 2.7M
20260429T12Z_MSC_GDPS_Rain-Accum1h_Sfc_LatLon0.15_PT078H.grib2 2026-04-29 16:19 1.5M
20260429T12Z_MSC_GDPS_Rain-Accum24h_Sfc_LatLon0.15_PT078H.grib2 2026-04-29 16:19 3.2M
20260429T12Z_MSC_GDPS_Rain-Accum3h_Sfc_LatLon0.15_PT078H.grib2 2026-04-29 16:19 1.7M
20260429T12Z_MSC_GDPS_Rain-Accum6h_Sfc_LatLon0.15_PT078H.grib2 2026-04-29 16:19 2.3M
20260429T12Z_MSC_GDPS_Rain-Accum_Sfc_LatLon0.15_PT078H.grib2 2026-04-29 16:19 4.0M
20260429T12Z_MSC_GDPS_RelativeHumidity_AGL-2m_LatLon0.15_PT078H.grib2 2026-04-29 16:19 1.1M
20260429T12Z_MSC_GDPS_RelativeHumidity_IsbL-0010_LatLon0.15_PT078H.grib2 2026-04-29 16:19 198K
20260429T12Z_MSC_GDPS_RelativeHumidity_IsbL-0020_LatLon0.15_PT078H.grib2 2026-04-29 16:19 165K
20260429T12Z_MSC_GDPS_RelativeHumidity_IsbL-0030_LatLon0.15_PT078H.grib2 2026-04-29 16:19 266K
20260429T12Z_MSC_GDPS_RelativeHumidity_IsbL-0050_LatLon0.15_PT078H.grib2 2026-04-29 16:19 419K
20260429T12Z_MSC_GDPS_RelativeHumidity_IsbL-0100_LatLon0.15_PT078H.grib2 2026-04-29 16:19 519K
20260429T12Z_MSC_GDPS_RelativeHumidity_IsbL-0150_LatLon0.15_PT078H.grib2 2026-04-29 16:19 660K
20260429T12Z_MSC_GDPS_RelativeHumidity_IsbL-0175_LatLon0.15_PT078H.grib2 2026-04-29 16:19 588K
20260429T12Z_MSC_GDPS_RelativeHumidity_IsbL-0200_LatLon0.15_PT078H.grib2 2026-04-29 16:19 704K
20260429T12Z_MSC_GDPS_RelativeHumidity_IsbL-0225_LatLon0.15_PT078H.grib2 2026-04-29 16:19 795K
20260429T12Z_MSC_GDPS_RelativeHumidity_IsbL-0250_LatLon0.15_PT078H.grib2 2026-04-29 16:19 865K
20260429T12Z_MSC_GDPS_RelativeHumidity_IsbL-0275_LatLon0.15_PT078H.grib2 2026-04-29 16:19 884K
20260429T12Z_MSC_GDPS_RelativeHumidity_IsbL-0300_LatLon0.15_PT078H.grib2 2026-04-29 16:19 926K
20260429T12Z_MSC_GDPS_RelativeHumidity_IsbL-0350_LatLon0.15_PT078H.grib2 2026-04-29 16:19 945K
20260429T12Z_MSC_GDPS_RelativeHumidity_IsbL-0400_LatLon0.15_PT078H.grib2 2026-04-29 16:19 968K
20260429T12Z_MSC_GDPS_RelativeHumidity_IsbL-0450_LatLon0.15_PT078H.grib2 2026-04-29 16:19 1.0M
20260429T12Z_MSC_GDPS_RelativeHumidity_IsbL-0500_LatLon0.15_PT078H.grib2 2026-04-29 16:19 1.0M
20260429T12Z_MSC_GDPS_RelativeHumidity_IsbL-0550_LatLon0.15_PT078H.grib2 2026-04-29 16:19 1.1M
20260429T12Z_MSC_GDPS_RelativeHumidity_IsbL-0600_LatLon0.15_PT078H.grib2 2026-04-29 16:19 1.1M
20260429T12Z_MSC_GDPS_RelativeHumidity_IsbL-0650_LatLon0.15_PT078H.grib2 2026-04-29 16:19 1.1M
20260429T12Z_MSC_GDPS_RelativeHumidity_IsbL-0700_LatLon0.15_PT078H.grib2 2026-04-29 16:19 1.1M
20260429T12Z_MSC_GDPS_RelativeHumidity_IsbL-0750_LatLon0.15_PT078H.grib2 2026-04-29 16:19 1.2M
20260429T12Z_MSC_GDPS_RelativeHumidity_IsbL-0800_LatLon0.15_PT078H.grib2 2026-04-29 16:19 1.3M
20260429T12Z_MSC_GDPS_RelativeHumidity_IsbL-0850_LatLon0.15_PT078H.grib2 2026-04-29 16:19 1.3M
20260429T12Z_MSC_GDPS_RelativeHumidity_IsbL-0875_LatLon0.15_PT078H.grib2 2026-04-29 16:19 1.3M
20260429T12Z_MSC_GDPS_RelativeHumidity_IsbL-0900_LatLon0.15_PT078H.grib2 2026-04-29 16:19 1.3M
20260429T12Z_MSC_GDPS_RelativeHumidity_IsbL-0925_LatLon0.15_PT078H.grib2 2026-04-29 16:19 1.2M
20260429T12Z_MSC_GDPS_RelativeHumidity_IsbL-0950_LatLon0.15_PT078H.grib2 2026-04-29 16:19 1.2M
20260429T12Z_MSC_GDPS_RelativeHumidity_IsbL-0970_LatLon0.15_PT078H.grib2 2026-04-29 16:19 1.2M
20260429T12Z_MSC_GDPS_RelativeHumidity_IsbL-0985_LatLon0.15_PT078H.grib2 2026-04-29 16:19 1.2M
20260429T12Z_MSC_GDPS_RelativeHumidity_IsbL-1000_LatLon0.15_PT078H.grib2 2026-04-29 16:19 1.1M
20260429T12Z_MSC_GDPS_RelativeHumidity_IsbL-1015_LatLon0.15_PT078H.grib2 2026-04-29 16:19 1.1M
20260429T12Z_MSC_GDPS_RelativeVorticity_IsbL-0200_LatLon0.15_PT078H.grib2 2026-04-29 16:19 1.5M
20260429T12Z_MSC_GDPS_RelativeVorticity_IsbL-0250_LatLon0.15_PT078H.grib2 2026-04-29 16:19 1.6M
20260429T12Z_MSC_GDPS_RelativeVorticity_IsbL-0500_LatLon0.15_PT078H.grib2 2026-04-29 16:19 1.4M
20260429T12Z_MSC_GDPS_RelativeVorticity_IsbL-0700_LatLon0.15_PT078H.grib2 2026-04-29 16:19 1.3M
20260429T12Z_MSC_GDPS_RelativeVorticity_IsbL-0850_LatLon0.15_PT078H.grib2 2026-04-29 16:19 1.6M
20260429T12Z_MSC_GDPS_Runoff-Accum_Sfc_LatLon0.15_PT078H.grib2 2026-04-29 16:19 116K
20260429T12Z_MSC_GDPS_SensibleHeatNetFlux_Sfc_LatLon0.15_PT078H.grib2 2026-04-29 16:19 633K
20260429T12Z_MSC_GDPS_ShowalterIndex_IsbL-0500_LatLon0.15_PT078H.grib2 2026-04-29 16:19 6.2M
20260429T12Z_MSC_GDPS_Snow-Accum12h_Sfc_LatLon0.15_PT078H.grib2 2026-04-29 16:19 1.3M
20260429T12Z_MSC_GDPS_Snow-Accum1h_Sfc_LatLon0.15_PT078H.grib2 2026-04-29 16:19 1.1M
20260429T12Z_MSC_GDPS_Snow-Accum24h_Sfc_LatLon0.15_PT078H.grib2 2026-04-29 16:19 1.4M
20260429T12Z_MSC_GDPS_Snow-Accum3h_Sfc_LatLon0.15_PT078H.grib2 2026-04-29 16:19 1.1M
20260429T12Z_MSC_GDPS_Snow-Accum6h_Sfc_LatLon0.15_PT078H.grib2 2026-04-29 16:19 1.4M
20260429T12Z_MSC_GDPS_Snow-Accum_Sfc_LatLon0.15_PT078H.grib2 2026-04-29 16:19 2.0M
20260429T12Z_MSC_GDPS_SnowDensity_Sfc_LatLon0.15_PT078H.grib2 2026-04-29 16:19 265K
20260429T12Z_MSC_GDPS_SnowDepth_Sfc_LatLon0.15_PT078H.grib2 2026-04-29 16:19 1.7M
20260429T12Z_MSC_GDPS_SoilTemp_DBS-0to10cm_LatLon0.15_PT078H.grib2 2026-04-29 16:19 511K
20260429T12Z_MSC_GDPS_SoilTemp_Sfc_LatLon0.15_PT078H.grib2 2026-04-29 16:19 578K
20260429T12Z_MSC_GDPS_SoilVolumetricIceContent_Sfc_LatLon0.15_PT078H.grib2 2026-04-29 16:19 201K
20260429T12Z_MSC_GDPS_SoilVolumetricWaterContent_DBS-0to10cm_LatLon0.15_PT078H.grib2 2026-04-29 16:19 587K
20260429T12Z_MSC_GDPS_SoilVolumetricWaterContent_DBS-0to1cm_LatLon0.15_PT078H.grib2 2026-04-29 16:19 649K
20260429T12Z_MSC_GDPS_SpecificHumidity_AGL-120m_LatLon0.15_PT078H.grib2 2026-04-29 16:19 1.1M
20260429T12Z_MSC_GDPS_SpecificHumidity_AGL-2m_LatLon0.15_PT078H.grib2 2026-04-29 16:19 1.2M
20260429T12Z_MSC_GDPS_SpecificHumidity_AGL-40m_LatLon0.15_PT078H.grib2 2026-04-29 16:19 1.1M
20260429T12Z_MSC_GDPS_SpecificHumidity_AGL-80m_LatLon0.15_PT078H.grib2 2026-04-29 16:19 1.1M
20260429T12Z_MSC_GDPS_SpecificHumidity_IsbL-0001_LatLon0.15_PT078H.grib2 2026-04-29 16:19 1.3M
20260429T12Z_MSC_GDPS_SpecificHumidity_IsbL-0005_LatLon0.15_PT078H.grib2 2026-04-29 16:19 1.2M
20260429T12Z_MSC_GDPS_SpecificHumidity_IsbL-0010_LatLon0.15_PT078H.grib2 2026-04-29 16:19 1.3M
20260429T12Z_MSC_GDPS_SpecificHumidity_IsbL-0020_LatLon0.15_PT078H.grib2 2026-04-29 16:19 1.3M
20260429T12Z_MSC_GDPS_SpecificHumidity_IsbL-0030_LatLon0.15_PT078H.grib2 2026-04-29 16:19 1.3M
20260429T12Z_MSC_GDPS_SpecificHumidity_IsbL-0050_LatLon0.15_PT078H.grib2 2026-04-29 16:19 1.6M
20260429T12Z_MSC_GDPS_SpecificHumidity_IsbL-0100_LatLon0.15_PT078H.grib2 2026-04-29 16:19 1.3M
20260429T12Z_MSC_GDPS_SpecificHumidity_IsbL-0150_LatLon0.15_PT078H.grib2 2026-04-29 16:19 1.3M
20260429T12Z_MSC_GDPS_SpecificHumidity_IsbL-0175_LatLon0.15_PT078H.grib2 2026-04-29 16:19 1.2M
20260429T12Z_MSC_GDPS_SpecificHumidity_IsbL-0200_LatLon0.15_PT078H.grib2 2026-04-29 16:19 1.3M
20260429T12Z_MSC_GDPS_SpecificHumidity_IsbL-0225_LatLon0.15_PT078H.grib2 2026-04-29 16:19 1.3M
20260429T12Z_MSC_GDPS_SpecificHumidity_IsbL-0250_LatLon0.15_PT078H.grib2 2026-04-29 16:19 1.4M
20260429T12Z_MSC_GDPS_SpecificHumidity_IsbL-0275_LatLon0.15_PT078H.grib2 2026-04-29 16:19 1.3M
20260429T12Z_MSC_GDPS_SpecificHumidity_IsbL-0300_LatLon0.15_PT078H.grib2 2026-04-29 16:19 1.2M
20260429T12Z_MSC_GDPS_SpecificHumidity_IsbL-0350_LatLon0.15_PT078H.grib2 2026-04-29 16:19 1.2M
20260429T12Z_MSC_GDPS_SpecificHumidity_IsbL-0400_LatLon0.15_PT078H.grib2 2026-04-29 16:19 1.5M
20260429T12Z_MSC_GDPS_SpecificHumidity_IsbL-0450_LatLon0.15_PT078H.grib2 2026-04-29 16:19 1.6M
20260429T12Z_MSC_GDPS_SpecificHumidity_IsbL-0500_LatLon0.15_PT078H.grib2 2026-04-29 16:19 1.4M
20260429T12Z_MSC_GDPS_SpecificHumidity_IsbL-0550_LatLon0.15_PT078H.grib2 2026-04-29 16:19 1.6M
20260429T12Z_MSC_GDPS_SpecificHumidity_IsbL-0600_LatLon0.15_PT078H.grib2 2026-04-29 16:19 1.7M
20260429T12Z_MSC_GDPS_SpecificHumidity_IsbL-0650_LatLon0.15_PT078H.grib2 2026-04-29 16:19 1.5M
20260429T12Z_MSC_GDPS_SpecificHumidity_IsbL-0700_LatLon0.15_PT078H.grib2 2026-04-29 16:19 1.6M
20260429T12Z_MSC_GDPS_SpecificHumidity_IsbL-0750_LatLon0.15_PT078H.grib2 2026-04-29 16:19 1.7M
20260429T12Z_MSC_GDPS_SpecificHumidity_IsbL-0800_LatLon0.15_PT078H.grib2 2026-04-29 16:19 1.9M
20260429T12Z_MSC_GDPS_SpecificHumidity_IsbL-0850_LatLon0.15_PT078H.grib2 2026-04-29 16:19 1.9M
20260429T12Z_MSC_GDPS_SpecificHumidity_IsbL-0875_LatLon0.15_PT078H.grib2 2026-04-29 16:19 1.9M
20260429T12Z_MSC_GDPS_SpecificHumidity_IsbL-0900_LatLon0.15_PT078H.grib2 2026-04-29 16:19 1.9M
20260429T12Z_MSC_GDPS_SpecificHumidity_IsbL-0925_LatLon0.15_PT078H.grib2 2026-04-29 16:19 1.6M
20260429T12Z_MSC_GDPS_SpecificHumidity_IsbL-0950_LatLon0.15_PT078H.grib2 2026-04-29 16:19 1.6M
20260429T12Z_MSC_GDPS_SpecificHumidity_IsbL-0970_LatLon0.15_PT078H.grib2 2026-04-29 16:19 1.6M
20260429T12Z_MSC_GDPS_SpecificHumidity_IsbL-0985_LatLon0.15_PT078H.grib2 2026-04-29 16:19 1.5M
20260429T12Z_MSC_GDPS_SpecificHumidity_IsbL-1000_LatLon0.15_PT078H.grib2 2026-04-29 16:19 1.5M
20260429T12Z_MSC_GDPS_SpecificHumidity_IsbL-1015_LatLon0.15_PT078H.grib2 2026-04-29 16:19 1.5M
20260429T12Z_MSC_GDPS_SpecificHumidity_Sfc_LatLon0.15_PT078H.grib2 2026-04-29 16:19 667K
20260429T12Z_MSC_GDPS_Thickness_IsbL-0850to0700_LatLon0.15_PT078H.grib2 2026-04-29 16:19 471K
20260429T12Z_MSC_GDPS_Thickness_IsbL-1000to0500_LatLon0.15_PT078H.grib2 2026-04-29 16:19 374K
20260429T12Z_MSC_GDPS_Thickness_IsbL-1000to0850_LatLon0.15_PT078H.grib2 2026-04-29 16:19 491K
20260429T12Z_MSC_GDPS_TotalCloudCover_Sfc_LatLon0.15_PT078H.grib2 2026-04-29 16:19 827K
20260429T12Z_MSC_GDPS_TotalTotalsIndex_Sfc_LatLon0.15_PT078H.grib2 2026-04-29 16:19 6.2M
20260429T12Z_MSC_GDPS_UVIndex-ClearSky-Max24h_Sfc_LatLon0.15_PT078H.grib2 2026-04-29 16:50 2.2M
20260429T12Z_MSC_GDPS_UVIndex-ClearSky_Sfc_LatLon0.15_PT078H.grib2 2026-04-29 16:50 1.0M
20260429T12Z_MSC_GDPS_UVIndex-Max24h_Sfc_LatLon0.15_PT078H.grib2 2026-04-29 16:50 3.2M
20260429T12Z_MSC_GDPS_UVIndex_Sfc_LatLon0.15_PT078H.grib2 2026-04-29 16:50 1.5M
20260429T12Z_MSC_GDPS_UpwardLongwaveRadiationFlux_NTAtm_LatLon0.15_PT078H.grib2 2026-04-29 16:19 840K
20260429T12Z_MSC_GDPS_VerticalVelocity_IsbL-0200_LatLon0.15_PT078H.grib2 2026-04-29 16:19 932K
20260429T12Z_MSC_GDPS_VerticalVelocity_IsbL-0250_LatLon0.15_PT078H.grib2 2026-04-29 16:19 1.0M
20260429T12Z_MSC_GDPS_VerticalVelocity_IsbL-0500_LatLon0.15_PT078H.grib2 2026-04-29 16:19 1.0M
20260429T12Z_MSC_GDPS_VerticalVelocity_IsbL-0600_LatLon0.15_PT078H.grib2 2026-04-29 16:19 1.1M
20260429T12Z_MSC_GDPS_VerticalVelocity_IsbL-0700_LatLon0.15_PT078H.grib2 2026-04-29 16:19 1.1M
20260429T12Z_MSC_GDPS_VerticalVelocity_IsbL-0850_LatLon0.15_PT078H.grib2 2026-04-29 16:19 1.3M
20260429T12Z_MSC_GDPS_WindChill_Sfc_LatLon0.15_PT078H.grib2 2026-04-29 16:19 5.3M
20260429T12Z_MSC_GDPS_WindDir_AGL-10m_LatLon0.15_PT078H.grib2 2026-04-29 16:19 1.3M
20260429T12Z_MSC_GDPS_WindDir_AGL-120m_LatLon0.15_PT078H.grib2 2026-04-29 16:19 1.3M
20260429T12Z_MSC_GDPS_WindDir_AGL-40m_LatLon0.15_PT078H.grib2 2026-04-29 16:19 1.4M
20260429T12Z_MSC_GDPS_WindDir_AGL-80m_LatLon0.15_PT078H.grib2 2026-04-29 16:19 1.4M
20260429T12Z_MSC_GDPS_WindDir_IsbL-0001_LatLon0.15_PT078H.grib2 2026-04-29 16:19 673K
20260429T12Z_MSC_GDPS_WindDir_IsbL-0005_LatLon0.15_PT078H.grib2 2026-04-29 16:19 807K
20260429T12Z_MSC_GDPS_WindDir_IsbL-0010_LatLon0.15_PT078H.grib2 2026-04-29 16:19 845K
20260429T12Z_MSC_GDPS_WindDir_IsbL-0020_LatLon0.15_PT078H.grib2 2026-04-29 16:19 945K
20260429T12Z_MSC_GDPS_WindDir_IsbL-0030_LatLon0.15_PT078H.grib2 2026-04-29 16:19 934K
20260429T12Z_MSC_GDPS_WindDir_IsbL-0050_LatLon0.15_PT078H.grib2 2026-04-29 16:19 950K
20260429T12Z_MSC_GDPS_WindDir_IsbL-0100_LatLon0.15_PT078H.grib2 2026-04-29 16:19 1.0M
20260429T12Z_MSC_GDPS_WindDir_IsbL-0150_LatLon0.15_PT078H.grib2 2026-04-29 16:19 1.0M
20260429T12Z_MSC_GDPS_WindDir_IsbL-0175_LatLon0.15_PT078H.grib2 2026-04-29 16:19 1.0M
20260429T12Z_MSC_GDPS_WindDir_IsbL-0200_LatLon0.15_PT078H.grib2 2026-04-29 16:19 1.1M
20260429T12Z_MSC_GDPS_WindDir_IsbL-0225_LatLon0.15_PT078H.grib2 2026-04-29 16:19 1.1M
20260429T12Z_MSC_GDPS_WindDir_IsbL-0250_LatLon0.15_PT078H.grib2 2026-04-29 16:19 1.1M
20260429T12Z_MSC_GDPS_WindDir_IsbL-0275_LatLon0.15_PT078H.grib2 2026-04-29 16:19 1.2M
20260429T12Z_MSC_GDPS_WindDir_IsbL-0300_LatLon0.15_PT078H.grib2 2026-04-29 16:19 1.2M
20260429T12Z_MSC_GDPS_WindDir_IsbL-0350_LatLon0.15_PT078H.grib2 2026-04-29 16:19 1.2M
20260429T12Z_MSC_GDPS_WindDir_IsbL-0400_LatLon0.15_PT078H.grib2 2026-04-29 16:19 1.3M
20260429T12Z_MSC_GDPS_WindDir_IsbL-0450_LatLon0.15_PT078H.grib2 2026-04-29 16:19 1.3M
20260429T12Z_MSC_GDPS_WindDir_IsbL-0500_LatLon0.15_PT078H.grib2 2026-04-29 16:19 1.3M
20260429T12Z_MSC_GDPS_WindDir_IsbL-0550_LatLon0.15_PT078H.grib2 2026-04-29 16:19 1.4M
20260429T12Z_MSC_GDPS_WindDir_IsbL-0600_LatLon0.15_PT078H.grib2 2026-04-29 16:19 1.4M
20260429T12Z_MSC_GDPS_WindDir_IsbL-0650_LatLon0.15_PT078H.grib2 2026-04-29 16:19 1.5M
20260429T12Z_MSC_GDPS_WindDir_IsbL-0700_LatLon0.15_PT078H.grib2 2026-04-29 16:19 1.6M
20260429T12Z_MSC_GDPS_WindDir_IsbL-0750_LatLon0.15_PT078H.grib2 2026-04-29 16:19 1.7M
20260429T12Z_MSC_GDPS_WindDir_IsbL-0800_LatLon0.15_PT078H.grib2 2026-04-29 16:19 1.8M
20260429T12Z_MSC_GDPS_WindDir_IsbL-0850_LatLon0.15_PT078H.grib2 2026-04-29 16:19 1.9M
20260429T12Z_MSC_GDPS_WindDir_IsbL-0875_LatLon0.15_PT078H.grib2 2026-04-29 16:19 2.0M
20260429T12Z_MSC_GDPS_WindDir_IsbL-0900_LatLon0.15_PT078H.grib2 2026-04-29 16:19 2.0M
20260429T12Z_MSC_GDPS_WindDir_IsbL-0925_LatLon0.15_PT078H.grib2 2026-04-29 16:19 2.0M
20260429T12Z_MSC_GDPS_WindDir_IsbL-0950_LatLon0.15_PT078H.grib2 2026-04-29 16:19 2.0M
20260429T12Z_MSC_GDPS_WindDir_IsbL-0970_LatLon0.15_PT078H.grib2 2026-04-29 16:19 2.0M
20260429T12Z_MSC_GDPS_WindDir_IsbL-0985_LatLon0.15_PT078H.grib2 2026-04-29 16:19 2.0M
20260429T12Z_MSC_GDPS_WindDir_IsbL-1000_LatLon0.15_PT078H.grib2 2026-04-29 16:19 2.1M
20260429T12Z_MSC_GDPS_WindDir_IsbL-1015_LatLon0.15_PT078H.grib2 2026-04-29 16:19 2.0M
20260429T12Z_MSC_GDPS_WindGust-Max_AGL-10m_LatLon0.15_PT078H.grib2 2026-04-29 16:19 2.2M
20260429T12Z_MSC_GDPS_WindGust-Min_AGL-10m_LatLon0.15_PT078H.grib2 2026-04-29 16:19 2.1M
20260429T12Z_MSC_GDPS_WindGust_AGL-10m_LatLon0.15_PT078H.grib2 2026-04-29 16:19 2.1M
20260429T12Z_MSC_GDPS_WindSpeed_AGL-10m_LatLon0.15_PT078H.grib2 2026-04-29 16:19 1.1M
20260429T12Z_MSC_GDPS_WindSpeed_AGL-120m_LatLon0.15_PT078H.grib2 2026-04-29 16:19 1.3M
20260429T12Z_MSC_GDPS_WindSpeed_AGL-40m_LatLon0.15_PT078H.grib2 2026-04-29 16:19 1.2M
20260429T12Z_MSC_GDPS_WindSpeed_AGL-80m_LatLon0.15_PT078H.grib2 2026-04-29 16:19 1.3M
20260429T12Z_MSC_GDPS_WindSpeed_IsbL-0001_LatLon0.15_PT078H.grib2 2026-04-29 16:19 637K
20260429T12Z_MSC_GDPS_WindSpeed_IsbL-0005_LatLon0.15_PT078H.grib2 2026-04-29 16:19 688K
20260429T12Z_MSC_GDPS_WindSpeed_IsbL-0010_LatLon0.15_PT078H.grib2 2026-04-29 16:19 625K
20260429T12Z_MSC_GDPS_WindSpeed_IsbL-0020_LatLon0.15_PT078H.grib2 2026-04-29 16:19 663K
20260429T12Z_MSC_GDPS_WindSpeed_IsbL-0030_LatLon0.15_PT078H.grib2 2026-04-29 16:19 859K
20260429T12Z_MSC_GDPS_WindSpeed_IsbL-0050_LatLon0.15_PT078H.grib2 2026-04-29 16:19 903K
20260429T12Z_MSC_GDPS_WindSpeed_IsbL-0100_LatLon0.15_PT078H.grib2 2026-04-29 16:19 1.1M
20260429T12Z_MSC_GDPS_WindSpeed_IsbL-0150_LatLon0.15_PT078H.grib2 2026-04-29 16:19 951K
20260429T12Z_MSC_GDPS_WindSpeed_IsbL-0175_LatLon0.15_PT078H.grib2 2026-04-29 16:19 1.0M
20260429T12Z_MSC_GDPS_WindSpeed_IsbL-0200_LatLon0.15_PT078H.grib2 2026-04-29 16:19 1.1M
20260429T12Z_MSC_GDPS_WindSpeed_IsbL-0225_LatLon0.15_PT078H.grib2 2026-04-29 16:19 1.1M
20260429T12Z_MSC_GDPS_WindSpeed_IsbL-0250_LatLon0.15_PT078H.grib2 2026-04-29 16:19 1.1M
20260429T12Z_MSC_GDPS_WindSpeed_IsbL-0275_LatLon0.15_PT078H.grib2 2026-04-29 16:19 1.1M
20260429T12Z_MSC_GDPS_WindSpeed_IsbL-0300_LatLon0.15_PT078H.grib2 2026-04-29 16:19 1.1M
20260429T12Z_MSC_GDPS_WindSpeed_IsbL-0350_LatLon0.15_PT078H.grib2 2026-04-29 16:19 1.1M
20260429T12Z_MSC_GDPS_WindSpeed_IsbL-0400_LatLon0.15_PT078H.grib2 2026-04-29 16:19 1.1M
20260429T12Z_MSC_GDPS_WindSpeed_IsbL-0450_LatLon0.15_PT078H.grib2 2026-04-29 16:19 1.1M
20260429T12Z_MSC_GDPS_WindSpeed_IsbL-0500_LatLon0.15_PT078H.grib2 2026-04-29 16:19 1.1M
20260429T12Z_MSC_GDPS_WindSpeed_IsbL-0550_LatLon0.15_PT078H.grib2 2026-04-29 16:19 1.1M
20260429T12Z_MSC_GDPS_WindSpeed_IsbL-0600_LatLon0.15_PT078H.grib2 2026-04-29 16:19 1.1M
20260429T12Z_MSC_GDPS_WindSpeed_IsbL-0650_LatLon0.15_PT078H.grib2 2026-04-29 16:19 1.5M
20260429T12Z_MSC_GDPS_WindSpeed_IsbL-0700_LatLon0.15_PT078H.grib2 2026-04-29 16:19 1.5M
20260429T12Z_MSC_GDPS_WindSpeed_IsbL-0750_LatLon0.15_PT078H.grib2 2026-04-29 16:19 1.6M
20260429T12Z_MSC_GDPS_WindSpeed_IsbL-0800_LatLon0.15_PT078H.grib2 2026-04-29 16:19 1.7M
20260429T12Z_MSC_GDPS_WindSpeed_IsbL-0850_LatLon0.15_PT078H.grib2 2026-04-29 16:19 1.8M
20260429T12Z_MSC_GDPS_WindSpeed_IsbL-0875_LatLon0.15_PT078H.grib2 2026-04-29 16:19 1.8M
20260429T12Z_MSC_GDPS_WindSpeed_IsbL-0900_LatLon0.15_PT078H.grib2 2026-04-29 16:19 1.8M
20260429T12Z_MSC_GDPS_WindSpeed_IsbL-0925_LatLon0.15_PT078H.grib2 2026-04-29 16:19 1.8M
20260429T12Z_MSC_GDPS_WindSpeed_IsbL-0950_LatLon0.15_PT078H.grib2 2026-04-29 16:19 1.9M
20260429T12Z_MSC_GDPS_WindSpeed_IsbL-0970_LatLon0.15_PT078H.grib2 2026-04-29 16:19 1.9M
20260429T12Z_MSC_GDPS_WindSpeed_IsbL-0985_LatLon0.15_PT078H.grib2 2026-04-29 16:19 1.9M
20260429T12Z_MSC_GDPS_WindSpeed_IsbL-1000_LatLon0.15_PT078H.grib2 2026-04-29 16:19 1.9M
20260429T12Z_MSC_GDPS_WindSpeed_IsbL-1015_LatLon0.15_PT078H.grib2 2026-04-29 16:19 1.8M
20260429T12Z_MSC_GDPS_WindU_AGL-10m_LatLon0.15_PT078H.grib2 2026-04-29 16:19 1.3M
20260429T12Z_MSC_GDPS_WindU_AGL-120m_LatLon0.15_PT078H.grib2 2026-04-29 16:19 1.0M
20260429T12Z_MSC_GDPS_WindU_AGL-40m_LatLon0.15_PT078H.grib2 2026-04-29 16:19 1.0M
20260429T12Z_MSC_GDPS_WindU_AGL-80m_LatLon0.15_PT078H.grib2 2026-04-29 16:19 1.0M
20260429T12Z_MSC_GDPS_WindU_IsbL-0001_LatLon0.15_PT078H.grib2 2026-04-29 16:19 496K
20260429T12Z_MSC_GDPS_WindU_IsbL-0005_LatLon0.15_PT078H.grib2 2026-04-29 16:19 689K
20260429T12Z_MSC_GDPS_WindU_IsbL-0010_LatLon0.15_PT078H.grib2 2026-04-29 16:19 701K
20260429T12Z_MSC_GDPS_WindU_IsbL-0020_LatLon0.15_PT078H.grib2 2026-04-29 16:19 731K
20260429T12Z_MSC_GDPS_WindU_IsbL-0030_LatLon0.15_PT078H.grib2 2026-04-29 16:19 733K
20260429T12Z_MSC_GDPS_WindU_IsbL-0050_LatLon0.15_PT078H.grib2 2026-04-29 16:19 693K
20260429T12Z_MSC_GDPS_WindU_IsbL-0100_LatLon0.15_PT078H.grib2 2026-04-29 16:19 926K
20260429T12Z_MSC_GDPS_WindU_IsbL-0150_LatLon0.15_PT078H.grib2 2026-04-29 16:19 1.0M
20260429T12Z_MSC_GDPS_WindU_IsbL-0175_LatLon0.15_PT078H.grib2 2026-04-29 16:19 1.0M
20260429T12Z_MSC_GDPS_WindU_IsbL-0200_LatLon0.15_PT078H.grib2 2026-04-29 16:19 1.1M
20260429T12Z_MSC_GDPS_WindU_IsbL-0225_LatLon0.15_PT078H.grib2 2026-04-29 16:19 855K
20260429T12Z_MSC_GDPS_WindU_IsbL-0250_LatLon0.15_PT078H.grib2 2026-04-29 16:19 858K
20260429T12Z_MSC_GDPS_WindU_IsbL-0275_LatLon0.15_PT078H.grib2 2026-04-29 16:19 887K
20260429T12Z_MSC_GDPS_WindU_IsbL-0300_LatLon0.15_PT078H.grib2 2026-04-29 16:19 878K
20260429T12Z_MSC_GDPS_WindU_IsbL-0350_LatLon0.15_PT078H.grib2 2026-04-29 16:19 891K
20260429T12Z_MSC_GDPS_WindU_IsbL-0400_LatLon0.15_PT078H.grib2 2026-04-29 16:19 896K
20260429T12Z_MSC_GDPS_WindU_IsbL-0450_LatLon0.15_PT078H.grib2 2026-04-29 16:19 1.1M
20260429T12Z_MSC_GDPS_WindU_IsbL-0500_LatLon0.15_PT078H.grib2 2026-04-29 16:19 1.1M
20260429T12Z_MSC_GDPS_WindU_IsbL-0550_LatLon0.15_PT078H.grib2 2026-04-29 16:19 1.1M
20260429T12Z_MSC_GDPS_WindU_IsbL-0600_LatLon0.15_PT078H.grib2 2026-04-29 16:19 1.2M
20260429T12Z_MSC_GDPS_WindU_IsbL-0650_LatLon0.15_PT078H.grib2 2026-04-29 16:19 1.2M
20260429T12Z_MSC_GDPS_WindU_IsbL-0700_LatLon0.15_PT078H.grib2 2026-04-29 16:19 1.2M
20260429T12Z_MSC_GDPS_WindU_IsbL-0750_LatLon0.15_PT078H.grib2 2026-04-29 16:19 1.3M
20260429T12Z_MSC_GDPS_WindU_IsbL-0800_LatLon0.15_PT078H.grib2 2026-04-29 16:19 1.4M
20260429T12Z_MSC_GDPS_WindU_IsbL-0850_LatLon0.15_PT078H.grib2 2026-04-29 16:19 1.4M
20260429T12Z_MSC_GDPS_WindU_IsbL-0875_LatLon0.15_PT078H.grib2 2026-04-29 16:19 1.5M
20260429T12Z_MSC_GDPS_WindU_IsbL-0900_LatLon0.15_PT078H.grib2 2026-04-29 16:19 1.5M
20260429T12Z_MSC_GDPS_WindU_IsbL-0925_LatLon0.15_PT078H.grib2 2026-04-29 16:19 1.5M
20260429T12Z_MSC_GDPS_WindU_IsbL-0950_LatLon0.15_PT078H.grib2 2026-04-29 16:19 1.4M
20260429T12Z_MSC_GDPS_WindU_IsbL-0970_LatLon0.15_PT078H.grib2 2026-04-29 16:19 1.4M
20260429T12Z_MSC_GDPS_WindU_IsbL-0985_LatLon0.15_PT078H.grib2 2026-04-29 16:19 1.4M
20260429T12Z_MSC_GDPS_WindU_IsbL-1000_LatLon0.15_PT078H.grib2 2026-04-29 16:19 1.4M
20260429T12Z_MSC_GDPS_WindU_IsbL-1015_LatLon0.15_PT078H.grib2 2026-04-29 16:19 1.4M
20260429T12Z_MSC_GDPS_WindV_AGL-10m_LatLon0.15_PT078H.grib2 2026-04-29 16:19 1.3M
20260429T12Z_MSC_GDPS_WindV_AGL-120m_LatLon0.15_PT078H.grib2 2026-04-29 16:19 1.0M
20260429T12Z_MSC_GDPS_WindV_AGL-40m_LatLon0.15_PT078H.grib2 2026-04-29 16:19 1.0M
20260429T12Z_MSC_GDPS_WindV_AGL-80m_LatLon0.15_PT078H.grib2 2026-04-29 16:19 1.0M
20260429T12Z_MSC_GDPS_WindV_IsbL-0001_LatLon0.15_PT078H.grib2 2026-04-29 16:19 777K
20260429T12Z_MSC_GDPS_WindV_IsbL-0005_LatLon0.15_PT078H.grib2 2026-04-29 16:19 760K
20260429T12Z_MSC_GDPS_WindV_IsbL-0010_LatLon0.15_PT078H.grib2 2026-04-29 16:19 792K
20260429T12Z_MSC_GDPS_WindV_IsbL-0020_LatLon0.15_PT078H.grib2 2026-04-29 16:19 848K
20260429T12Z_MSC_GDPS_WindV_IsbL-0030_LatLon0.15_PT078H.grib2 2026-04-29 16:19 848K
20260429T12Z_MSC_GDPS_WindV_IsbL-0050_LatLon0.15_PT078H.grib2 2026-04-29 16:19 901K
20260429T12Z_MSC_GDPS_WindV_IsbL-0100_LatLon0.15_PT078H.grib2 2026-04-29 16:19 1.1M
20260429T12Z_MSC_GDPS_WindV_IsbL-0150_LatLon0.15_PT078H.grib2 2026-04-29 16:19 1.0M
20260429T12Z_MSC_GDPS_WindV_IsbL-0175_LatLon0.15_PT078H.grib2 2026-04-29 16:19 1.0M
20260429T12Z_MSC_GDPS_WindV_IsbL-0200_LatLon0.15_PT078H.grib2 2026-04-29 16:19 844K
20260429T12Z_MSC_GDPS_WindV_IsbL-0225_LatLon0.15_PT078H.grib2 2026-04-29 16:19 852K
20260429T12Z_MSC_GDPS_WindV_IsbL-0250_LatLon0.15_PT078H.grib2 2026-04-29 16:19 909K
20260429T12Z_MSC_GDPS_WindV_IsbL-0275_LatLon0.15_PT078H.grib2 2026-04-29 16:19 935K
20260429T12Z_MSC_GDPS_WindV_IsbL-0300_LatLon0.15_PT078H.grib2 2026-04-29 16:19 925K
20260429T12Z_MSC_GDPS_WindV_IsbL-0350_LatLon0.15_PT078H.grib2 2026-04-29 16:19 879K
20260429T12Z_MSC_GDPS_WindV_IsbL-0400_LatLon0.15_PT078H.grib2 2026-04-29 16:19 883K
20260429T12Z_MSC_GDPS_WindV_IsbL-0450_LatLon0.15_PT078H.grib2 2026-04-29 16:19 1.1M
20260429T12Z_MSC_GDPS_WindV_IsbL-0500_LatLon0.15_PT078H.grib2 2026-04-29 16:19 1.1M
20260429T12Z_MSC_GDPS_WindV_IsbL-0550_LatLon0.15_PT078H.grib2 2026-04-29 16:19 1.1M
20260429T12Z_MSC_GDPS_WindV_IsbL-0600_LatLon0.15_PT078H.grib2 2026-04-29 16:19 1.1M
20260429T12Z_MSC_GDPS_WindV_IsbL-0650_LatLon0.15_PT078H.grib2 2026-04-29 16:19 1.2M
20260429T12Z_MSC_GDPS_WindV_IsbL-0700_LatLon0.15_PT078H.grib2 2026-04-29 16:19 1.2M
20260429T12Z_MSC_GDPS_WindV_IsbL-0750_LatLon0.15_PT078H.grib2 2026-04-29 16:19 1.3M
20260429T12Z_MSC_GDPS_WindV_IsbL-0800_LatLon0.15_PT078H.grib2 2026-04-29 16:19 1.3M
20260429T12Z_MSC_GDPS_WindV_IsbL-0850_LatLon0.15_PT078H.grib2 2026-04-29 16:19 1.4M
20260429T12Z_MSC_GDPS_WindV_IsbL-0875_LatLon0.15_PT078H.grib2 2026-04-29 16:19 1.5M
20260429T12Z_MSC_GDPS_WindV_IsbL-0900_LatLon0.15_PT078H.grib2 2026-04-29 16:19 1.5M
20260429T12Z_MSC_GDPS_WindV_IsbL-0925_LatLon0.15_PT078H.grib2 2026-04-29 16:19 1.5M
20260429T12Z_MSC_GDPS_WindV_IsbL-0950_LatLon0.15_PT078H.grib2 2026-04-29 16:19 1.4M
20260429T12Z_MSC_GDPS_WindV_IsbL-0970_LatLon0.15_PT078H.grib2 2026-04-29 16:19 1.4M
20260429T12Z_MSC_GDPS_WindV_IsbL-0985_LatLon0.15_PT078H.grib2 2026-04-29 16:19 1.4M
20260429T12Z_MSC_GDPS_WindV_IsbL-1000_LatLon0.15_PT078H.grib2 2026-04-29 16:19 1.4M
20260429T12Z_MSC_GDPS_WindV_IsbL-1015_LatLon0.15_PT078H.grib2 2026-04-29 16:19 1.4M